| time (UTC) | temp F | wind direction | speed MPH | gust MPH | rain 1hr in | rain 24hr in | rain mn in | humidity % | barometer mb |
| 20260503203453 | 66 | 246 | 3.0 | 8.0 | 0.00 | 0.00 | 0.00 | 28 | 1013.3 |
| 20260503202438 | 65 | 224 | 3.0 | 13.0 | 0.00 | 0.00 | 0.00 | 27 | 1013.5 |
| 20260503201432 | 66 | 313 | 3.0 | 13.0 | 0.00 | 0.00 | 0.00 | 28 | 1013.6 |
| 20260503200429 | 65 | 306 | 3.0 | 13.0 | 0.00 | 0.00 | 0.00 | 28 | 1013.8 |
| 20260503195448 | 65 | 302 | 3.0 | 13.0 | 0.00 | 0.00 | 0.00 | 28 | 1013.8 |
| 20260503194513 | 65 | 287 | 3.0 | 9.0 | 0.00 | 0.00 | 0.00 | 28 | 1014.0 |
| 20260503193528 | 64 | 266 | 3.0 | 12.0 | 0.00 | 0.00 | 0.00 | 29 | 1014.0 |
| 20260503192542 | 64 | 317 | 3.0 | 12.0 | 0.00 | 0.00 | 0.00 | 29 | 1014.2 |
| 20260503190345 | 66 | 323 | 4.0 | 11.0 | 0.00 | 0.00 | 0.00 | 27 | 1014.6 |
| 20260503185327 | 66 | 304 | 2.0 | 11.0 | 0.00 | 0.00 | 0.00 | 30 | 1014.6 |
| 20260503184343 | 65 | 26 | 4.0 | 11.0 | 0.00 | 0.00 | 0.00 | 30 | 1014.8 |
| 20260503183402 | 64 | 291 | 4.0 | 10.0 | 0.00 | 0.00 | 0.00 | 30 | 1015.0 |
| 20260503181158 | 64 | 306 | 2.0 | 8.0 | 0.00 | 0.00 | 0.00 | 31 | 1014.9 |
| 20260503173934 | 64 | 260 | 4.0 | 10.0 | 0.00 | 0.00 | 0.00 | 28 | 1015.2 |
| 20260503171746 | 64 | 309 | 2.0 | 8.0 | 0.00 | 0.00 | 0.00 | 31 | 1015.5 |
| 20260503150409 | 58 | 262 | 3.0 | 9.0 | 0.00 | 0.00 | 0.00 | 35 | 1016.1 |
| 20260503131052 | 52 | 310 | 3.0 | 8.0 | 0.00 | 0.00 | 0.00 | 45 | 1016.5 |
| 20260503110817 | 43 | 306 | 1.0 | 4.0 | 0.00 | 0.00 | 0.00 | 68 | 1015.6 |
| 20260503090504 | 43 | 302 | 1.0 | 4.0 | 0.00 | 0.00 | 0.00 | 68 | 1013.9 |
| 20260503080252 | 44 | 304 | 0.0 | 3.0 | 0.00 | 0.00 | 0.00 | 66 | 1013.7 |
| 20260503072327 | 44 | 303 | 1.0 | 4.0 | 0.00 | 0.00 | 0.00 | 66 | 1013.3 |
| 20260503070110 | 44 | 296 | 0.0 | 3.0 | 0.00 | 0.00 | 0.00 | 65 | 1013.1 |
| 20260503054803 | 46 | 275 | 0.0 | 0.0 | 0.00 | 0.00 | 0.00 | 63 | 1012.8 |
| 20260503053741 | 46 | 274 | 0.0 | 2.0 | 0.00 | 0.00 | 0.00 | 62 | 1012.8 |
| 20260503052743 | 47 | 339 | 0.0 | 1.0 | 0.00 | 0.00 | 0.00 | 62 | 1012.8 |
| 20260503051714 | 47 | 339 | 0.0 | 0.0 | 0.00 | 0.00 | 0.00 | 62 | 1012.9 |
| 20260503050704 | 48 | 339 | 0.0 | 1.0 | 0.00 | 0.00 | 0.00 | 60 | 1013.0 |
| 20260503044555 | 49 | 339 | 0.0 | 0.0 | 0.00 | 0.00 | 0.00 | 58 | 1013.1 |
| 20260503043616 | 49 | 339 | 0.0 | 0.0 | 0.00 | 0.00 | 0.00 | 57 | 1013.1 |
| 20260503042543 | 49 | 339 | 0.0 | 0.0 | 0.00 | 0.00 | 0.00 | 56 | 1013.2 |
| 20260503041559 | 50 | 339 | 0.0 | 0.0 | 0.00 | 0.00 | 0.00 | 55 | 1013.1 |
| 20260503035503 | 51 | 345 | 0.0 | 5.0 | 0.00 | 0.00 | 0.00 | 54 | 1013.1 |
| 20260503034507 | 51 | 5 | 0.0 | 5.0 | 0.00 | 0.00 | 0.00 | 54 | 1013.0 |
| 20260503033527 | 52 | 355 | 1.0 | 5.0 | 0.00 | 0.00 | 0.00 | 52 | 1012.9 |
| 20260503032501 | 52 | 338 | 0.0 | 3.0 | 0.00 | 0.00 | 0.00 | 52 | 1012.8 |
| 20260503031509 | 52 | 332 | 0.0 | 3.0 | 0.00 | 0.00 | 0.00 | 52 | 1012.8 |
| 20260503030519 | 53 | 332 | 0.0 | 1.0 | 0.00 | 0.00 | 0.00 | 51 | 1012.8 |
| 20260503025511 | 53 | 332 | 0.0 | 3.0 | 0.00 | 0.00 | 0.00 | 50 | 1012.8 |
| 20260503024516 | 53 | 13 | 0.0 | 4.0 | 0.00 | 0.00 | 0.00 | 50 | 1012.8 |
| 20260503023500 | 53 | 334 | 0.0 | 4.0 | 0.00 | 0.00 | 0.00 | 50 | 1012.8 |
| 20260503021339 | 53 | 286 | 0.0 | 1.0 | 0.00 | 0.00 | 0.00 | 51 | 1012.7 |
| 20260503020403 | 52 | 286 | 0.0 | 0.0 | 0.00 | 0.00 | 0.00 | 52 | 1012.6 |
| 20260503015423 | 52 | 286 | 0.0 | 0.0 | 0.00 | 0.00 | 0.00 | 54 | 1012.6 |
| 20260503014418 | 52 | 286 | 0.0 | 0.0 | 0.00 | 0.00 | 0.00 | 54 | 1012.4 |
| 20260503013410 | 53 | 286 | 0.0 | 0.0 | 0.00 | 0.00 | 0.00 | 54 | 1012.4 |
| 20260503012340 | 53 | 286 | 0.0 | 0.0 | 0.00 | 0.00 | 0.00 | 54 | 1012.3 |
| 20260503011307 | 53 | 286 | 0.0 | 0.0 | 0.00 | 0.00 | 0.00 | 52 | 1012.2 |
| 20260503005137 | 54 | 286 | 0.0 | 0.0 | 0.00 | 0.00 | 0.00 | 50 | 1011.8 |
| 20260503004152 | 54 | 286 | 0.0 | 0.0 | 0.00 | 0.00 | 0.00 | 49 | 1011.7 |
| 20260503003132 | 55 | 286 | 0.0 | 0.0 | 0.00 | 0.00 | 0.00 | 48 | 1011.7 |
| 20260503002112 | 55 | 286 | 0.0 | 0.0 | 0.00 | 0.00 | 0.00 | 48 | 1011.6 |
| 20260503001123 | 56 | 286 | 0.0 | 0.0 | 0.00 | 0.00 | 0.00 | 46 | 1011.4 |
| 20260503000136 | 56 | 347 | 0.0 | 4.0 | 0.00 | 0.00 | 0.00 | 45 | 1011.2 |
| 20260502235103 | 56 | 346 | 0.0 | 2.0 | 0.00 | 0.00 | 0.00 | 45 | 1011.1 |
| 20260502234044 | 56 | 346 | 0.0 | 3.0 | 0.00 | 0.00 | 0.00 | 45 | 1011.0 |
| 20260502233050 | 57 | 346 | 0.0 | 3.0 | 0.00 | 0.00 | 0.00 | 44 | 1011.0 |
| 20260502232045 | 57 | 346 | 0.0 | 4.0 | 0.00 | 0.00 | 0.00 | 45 | 1010.8 |
| 20260502231043 | 57 | 5 | 0.0 | 3.0 | 0.00 | 0.00 | 0.00 | 44 | 1011.0 |
| 20260502230050 | 57 | 344 | 0.0 | 3.0 | 0.00 | 0.00 | 0.00 | 42 | 1010.9 |
| 20260502225111 | 58 | 344 | 0.0 | 4.0 | 0.00 | 0.00 | 0.00 | 44 | 1010.9 |
| 20260502224122 | 58 | 344 | 0.0 | 3.0 | 0.00 | 0.00 | 0.00 | 43 | 1010.8 |
| 20260502223121 | 58 | 336 | 0.0 | 0.0 | 0.00 | 0.00 | 0.00 | 43 | 1010.7 |
| 20260502220944 | 59 | 317 | 0.0 | 3.0 | 0.00 | 0.00 | 0.00 | 41 | 1010.9 |
| 20260502215913 | 59 | 317 | 0.0 | 4.0 | 0.00 | 0.00 | 0.00 | 41 | 1010.9 |
| 20260502214907 | 59 | 355 | 0.0 | 5.0 | 0.00 | 0.00 | 0.00 | 40 | 1010.9 |
| 20260502213835 | 60 | 336 | 1.0 | 7.0 | 0.00 | 0.00 | 0.00 | 39 | 1010.7 |
| 20260502212855 | 61 | 292 | 1.0 | 9.0 | 0.00 | 0.00 | 0.00 | 38 | 1010.7 |
| 20260502211833 | 61 | 5 | 2.0 | 9.0 | 0.00 | 0.00 | 0.00 | 37 | 1010.6 |
| 20260502210806 | 62 | 290 | 1.0 | 8.0 | 0.00 | 0.00 | 0.00 | 34 | 1010.6 |
| 20260502205801 | 62 | 337 | 1.0 | 8.0 | 0.00 | 0.00 | 0.00 | 34 | 1010.5 |